Weather History for Topeka, KS

Change the Weather History Date:

Monday, March 10, 2014

  Actual Average Record
Temperature  
Mean Temperature 62 °F 43 °F  
Max Temperature 78 °F 54 °F 84 °F (1967)
Min Temperature 46 °F 31 °F 0 °F (1948)
Degree Days  
Heating Degree Days 3 22  
Month to date heating degree days 326 240  
Since 1 July heating degree days 4648 4207  
Cooling Degree Days 0 0  
Month to date cooling degree days 0 0  
Year to date cooling degree days 0 0  
Growing Degree Days 12 (Base 50)    
Moisture  
Dew Point 29 °F    
Average Humidity 35    
Maximum Humidity 50    
Minimum Humidity 19    
Precipitation  
Precipitation 0.00 in 0.07 in 0.96 in (1922)
Month to date precipitation 0.17 0.66  
Year to date precipitation 1.83 2.84  
Snow  
Snow 0.00 in 0.00 in 2.70 in (1943)
Month to date snowfall 2.4 0.7  
Year to date snowfall 21.3 10.1  
Since 1 July snowfall 25.6 16.6  
Snow Depth 0.00 in    
Sea Level Pressure  
Sea Level Pressure 29.79 in    
Wind  
Wind Speed 6 mph (WSW)    
Max Wind Speed 12 mph    
Max Gust Speed 16 mph    
Visibility 10 miles    
Events      
T = Trace of Precipitation, MM = Missing Value Source: NWS Daily Summary

Daily Weather History Graph

Daily Weather History Graph

Search for Another Location

Airport:

Trip Planner

Search our weather history database for the weather conditions in past years. The results will help you decide how hot, cold, wet, or windy it might be!

Date:

Astronomy

Mar. 10, 2014 Rise Set
Actual Time 7:41 AM CDT 7:24 PM CDT
Civil Twilight 7:14 AM CDT 7:51 PM CDT
Nautical Twilight 6:43 AM CDT 8:22 PM CDT
Astronomical Twilight 6:12 AM CDT 8:53 PM CDT
Moon 2:10 PM CDT (3/10) 3:52 AM CDT (3/10)
Length of Visible Light 12h 36m
Length of Day
11h 42m
Waxing Gibbous, 70% of the Moon is Illuminated
Mar 10
Waxing Gibbous
Mar 16
Full
Mar 23
Last Quarter
Mar 30
New
Apr 7
First Quarter

Hourly Weather History & Observations

Time (CDT) Temp. Windchill Dew Point Humidity Pressure Visibility Wind Dir Wind Speed Gust Speed Precip Events Conditions
12:53 AM 50.0 °F - 28.0 °F 43% 29.95 in 10.0 mi SW 8.1 mph - N/A   Clear
1:53 AM 48.9 °F - 27.0 °F 43% 29.92 in 10.0 mi SSW 5.8 mph - N/A   Clear
2:53 AM 48.9 °F - 26.1 °F 41% 29.90 in 10.0 mi SW 9.2 mph - N/A   Clear
3:53 AM 46.9 °F - 25.0 °F 42% 29.87 in 10.0 mi SSW 5.8 mph - N/A   Clear
4:53 AM 48.9 °F - 25.0 °F 39% 29.84 in 10.0 mi SSW 9.2 mph - N/A   Clear
5:53 AM 48.9 °F - 25.0 °F 39% 29.84 in 10.0 mi SW 8.1 mph - N/A   Clear
6:53 AM 48.0 °F - 25.0 °F 41% 29.84 in 10.0 mi SW 6.9 mph - N/A   Clear
7:53 AM 46.0 °F 42.5 °F 25.0 °F 44% 29.85 in 10.0 mi SW 6.9 mph - N/A   Clear
8:53 AM 48.9 °F - 26.1 °F 41% 29.85 in 10.0 mi SW 5.8 mph - N/A   Clear
9:53 AM 53.1 °F - 27.0 °F 37% 29.84 in 10.0 mi SSW 9.2 mph - N/A   Clear
10:53 AM 59.0 °F - 28.0 °F 31% 29.84 in 10.0 mi West 9.2 mph - N/A   Clear
11:53 AM 63.0 °F - 30.0 °F 29% 29.83 in 10.0 mi Variable 5.8 mph - N/A   Clear
12:53 PM 69.1 °F - 30.0 °F 23% 29.80 in 10.0 mi WSW 6.9 mph - N/A   Clear
1:53 PM 73.9 °F - 30.9 °F 21% 29.77 in 10.0 mi West 8.1 mph - N/A   Clear
2:53 PM 73.9 °F - 32.0 °F 21% 29.73 in 10.0 mi West 5.8 mph - N/A   Clear
3:51 PM 75.2 °F - 32.0 °F 21% 29.73 in 2.0 mi WNW 8.1 mph - N/A   Haze
3:53 PM 75.9 °F - 32.0 °F 20% 29.72 in 10.0 mi WNW 8.1 mph - N/A   Clear
4:53 PM 75.9 °F - 30.0 °F 19% 29.70 in 10.0 mi WNW 4.6 mph - N/A   Clear
5:53 PM 75.0 °F - 33.1 °F 22% 29.68 in 10.0 mi West 3.5 mph - N/A   Clear
6:53 PM 73.0 °F - 32.0 °F 22% 29.68 in 10.0 mi NW 3.5 mph - N/A   Clear
7:53 PM 63.0 °F - 34.0 °F 34% 29.69 in 10.0 mi Calm Calm - N/A   Clear
8:53 PM 55.0 °F - 34.0 °F 45% 29.69 in 10.0 mi Calm Calm - N/A   Clear
9:53 PM 51.1 °F - 34.0 °F 52% 29.68 in 10.0 mi Calm Calm - N/A   Clear
10:53 PM 55.0 °F - 32.0 °F 42% 29.66 in 10.0 mi South 4.6 mph - N/A   Clear
11:53 PM 59.0 °F - 28.9 °F 32% 29.65 in 10.0 mi South 5.8 mph - N/A   Clear